TimeMST,TemperatureF,Dew PointF,Humidity,Sea Level PressureIn,VisibilityMPH,Wind Direction,Wind SpeedMPH,Gust SpeedMPH,PrecipitationIn,Events,Conditions,WindDirDegrees,DateUTC
5:00 AM,9,5,78,29.87,15,Calm,Calm,,,,,,2012-12-13 12:00:00
5:00 AM,8.6,5.0,85,29.86,15.0,South,3.5,-,N/A,,Clear,190,2012-12-13 12:00:00
6:00 AM,1.4,-4.0,78,29.89,15.0,North,3.5,-,N/A,,Clear,350,2012-12-13 13:00:00
7:00 AM,6.8,3.2,85,29.87,15.0,Calm,Calm,-,N/A,,Clear,0,2012-12-13 14:00:00
8:00 AM,6.8,3.2,85,29.86,20.0,SW,3.5,-,N/A,,Partly Cloudy,230,2012-12-13 15:00:00
9:00 AM,8.6,5.0,85,29.85,30.0,SW,6.9,-,N/A,,Scattered Clouds,230,2012-12-13 16:00:00
10:00 AM,14.0,8.6,79,29.83,30.0,NW,3.5,-,N/A,,Scattered Clouds,320,2012-12-13 17:00:00
11:00 AM,22,9,43,29.79,28,WSW,2.3,,,,Mostly Cloudy,250,2012-12-13 18:00:00
11:00 AM,23.0,8.6,54,29.79,30.0,SW,3.5,-,N/A,,Mostly Cloudy,220,2012-12-13 18:00:00
12:00 PM,28.4,10.4,47,29.75,30.0,Calm,Calm,-,N/A,,Mostly Cloudy,0,2012-12-13 19:00:00
1:00 PM,32.0,12.2,44,29.73,30.0,NNE,4.6,-,N/A,,Mostly Cloudy,20,2012-12-13 20:00:00
1:33 PM,35.6,15.8,44,29.70,30.0,West,15.0,-,N/A,,Mostly Cloudy,280,2012-12-13 20:33:00
2:00 PM,33.8,14.0,44,29.69,30.0,West,18.4,29.9,N/A,Snow,Low Drifting Snow,270,2012-12-13 21:00:00
3:00 PM,32.0,12.2,44,29.68,30.0,West,17.3,23.0,N/A,,Mostly Cloudy,270,2012-12-13 22:00:00
5:00 PM,30.2,12.2,47,29.68,20.0,West,13.8,-,N/A,,Mostly Cloudy,270,2012-12-14 00:00:00
6:00 PM,30.2,10.4,44,29.69,15.0,West,5.8,-,N/A,,Scattered Clouds,260,2012-12-14 01:00:00
7:00 PM,32.0,15.8,51,29.65,15.0,WNW,19.6,25.3,N/A,,Scattered Clouds,300,2012-12-14 02:00:00
8:00 PM,30.2,15.8,55,29.67,15.0,WNW,2.3,-,N/A,,Scattered Clouds,300,2012-12-14 03:00:00
9:00 PM,30.2,17.6,60,29.67,15.0,WNW,13.8,-,N/A,,Scattered Clouds,300,2012-12-14 04:00:00
10:00 PM,32.0,15.8,51,29.47,15.0,WNW,21.9,29.9,N/A,,Scattered Clouds,290,2012-12-14 05:00:00